Location: Garos
(43.5000°N, 0.4667°W)
Time: 04:27:10
(UTC+00:00)

NOAA 6 - Pass Details

Date: 03 February 2023
Orbit: 770 x 786 km, 98.7° (Epoch: 26 March)

Event Time Altitude Azimuth Distance (km) Brightness Sun altitude
Rises 17:44:31 0° 161° (SSE) 3,246 7.2 -5.8°
Reaches altitude 10° 17:46:49 10° 160° (SSE) 2,325 6.5 -6.2°
Maximum altitude 17:51:57 80° 74° (ENE) 798 4.0 -7.1°
Drops below altitude 10° 17:57:09 10° 348° (NNW) 2,352 6.5 -8.0°
Sets 17:59:29 0° 348° (NNW) 3,286 7.3 -8.4°
